TimeEST,TemperatureF,Dew PointF,Humidity,Sea Level PressureIn,VisibilityMPH,Wind Direction,Wind SpeedMPH,Gust SpeedMPH,PrecipitationIn,Events,Conditions,WindDirDegrees,DateUTC
12:51 AM,39.0,30.0,70,29.83,10.0,South,5.8,-,N/A,,Mostly Cloudy,190,2013-01-20 05:51:00
1:51 AM,39.9,30.9,70,29.82,10.0,SSW,5.8,-,N/A,,Overcast,200,2013-01-20 06:51:00
2:51 AM,39.9,30.9,70,29.77,10.0,South,10.4,-,N/A,,Overcast,190,2013-01-20 07:51:00
3:51 AM,39.9,30.0,68,29.73,10.0,South,10.4,-,N/A,,Overcast,190,2013-01-20 08:51:00
4:51 AM,39.9,32.0,73,29.70,10.0,SW,9.2,-,N/A,,Overcast,220,2013-01-20 09:51:00
5:51 AM,39.9,32.0,73,29.65,10.0,South,9.2,-,N/A,,Clear,190,2013-01-20 10:51:00
6:51 AM,39.9,30.0,68,29.60,10.0,South,9.2,-,N/A,,Clear,190,2013-01-20 11:51:00
7:51 AM,39.9,30.0,68,29.56,10.0,South,9.2,-,N/A,,Clear,190,2013-01-20 12:51:00
8:51 AM,42.8,30.2,61,29.54,10.0,SW,12.7,20.7,N/A,,Clear,220,2013-01-20 13:51:00
9:51 AM,44.1,28.9,55,29.52,10.0,SSW,13.8,23.0,N/A,,Clear,210,2013-01-20 14:51:00
10:51 AM,46.0,28.0,50,29.48,10.0,SSW,12.7,29.9,N/A,,Clear,210,2013-01-20 15:51:00
11:51 AM,48.9,27.0,43,29.44,10.0,SSW,12.7,-,N/A,,Clear,210,2013-01-20 16:51:00
12:51 PM,46.9,27.0,46,29.47,10.0,West,21.9,28.8,N/A,,Overcast,270,2013-01-20 17:51:00
1:51 PM,44.1,28.0,53,29.49,10.0,WSW,24.2,34.5,N/A,,Mostly Cloudy,240,2013-01-20 18:51:00
2:51 PM,44.1,21.9,42,29.52,10.0,WSW,11.5,33.4,N/A,,Clear,250,2013-01-20 19:51:00
3:51 PM,42.8,15.8,34,29.56,10.0,West,19.6,39.1,N/A,,Clear,270,2013-01-20 20:51:00
4:51 PM,39.9,15.1,36,29.62,10.0,West,19.6,31.1,N/A,,Clear,260,2013-01-20 21:51:00
5:51 PM,36.0,14.0,41,29.68,10.0,West,27.6,35.7,N/A,,Clear,270,2013-01-20 22:51:00
6:51 PM,34.0,12.0,40,29.71,10.0,West,23.0,32.2,N/A,,Clear,260,2013-01-20 23:51:00
7:51 PM,32.0,10.0,40,29.74,10.0,West,15.0,27.6,N/A,,Clear,260,2013-01-21 00:51:00
8:51 PM,30.9,10.0,42,29.77,10.0,West,17.3,31.1,N/A,,Clear,270,2013-01-21 01:51:00
9:51 PM,30.0,8.1,40,29.80,10.0,West,20.7,33.4,N/A,,Clear,280,2013-01-21 02:51:00
10:51 PM,28.0,6.1,39,29.83,10.0,West,24.2,34.5,N/A,,Clear,270,2013-01-21 03:51:00
11:51 PM,26.1,5.0,41,29.85,10.0,West,16.1,31.1,N/A,,Clear,270,2013-01-21 04:51:00